IN3APK-3 Weather Reports


time (UTC)temp
F
wind
direction
speed
knots
gust
knots
rain 1hr
in
rain 24hr
in
rain mn
in
humidity
%
barometer
mb
20260502162557 82 0.0 0.0 0.00 0.00 0.00 25 1014.2
20260502161506 84 0.0 0.0 0.00 0.00 0.00 25 1014.3
20260502160416 88 0.0 0.0 0.00 0.00 0.00 24 1014.3
20260502152047 89 0.0 0.0 0.00 0.00 0.00 25 1014.7
20260502150955 89 0.0 0.0 0.00 0.00 0.00 25 1014.7
20260502123745 84 0.0 0.0 0.00 0.00 0.00 33 1016.6
20260502122652 82 0.0 0.0 0.00 0.00 0.00 33 1016.7
20260502121559 79 0.0 0.0 0.00 0.00 0.00 34 1016.9
20260502120506 77 0.0 0.0 0.00 0.00 0.00 35 1016.9
20260502115414 76 0.0 0.0 0.00 0.00 0.00 37 1017.1
20260502114321 74 0.0 0.0 0.00 0.00 0.00 38 1017.3
20260502113228 73 0.0 0.0 0.00 0.00 0.00 39 1017.5
20260502111043 70 0.0 0.0 0.00 0.00 0.00 40 1017.9
20260502105951 70 0.0 0.0 0.00 0.00 0.00 40 1018.1
20260502104858 70 0.0 0.0 0.00 0.00 0.00 40 1018.3
20260502103805 69 0.0 0.0 0.00 0.00 0.00 41 1018.4
20260502101620 65 0.0 0.0 0.00 0.00 0.00 42 1018.9
20260502100528 64 0.0 0.0 0.00 0.00 0.00 43 1019.0
20260502091104 57 0.0 0.0 0.00 0.00 0.00 46 1019.7
20260502071127 49 0.0 0.0 0.00 0.00 0.00 49 1020.8
20260502070034 48 0.0 0.0 0.00 0.00 0.00 49 1020.8
20260502064942 47 0.0 0.0 0.00 0.00 0.00 49 1020.7
20260502063849 47 0.0 0.0 0.00 0.00 0.00 49 1020.8
20260502062757 46 0.0 0.0 0.00 0.00 0.00 49 1020.9
20260502061704 45 0.0 0.0 0.00 0.00 0.00 49 1021.1
20260502060611 45 0.0 0.0 0.00 0.00 0.00 49 1021.2
20260502055518 44 0.0 0.0 0.00 0.00 0.00 49 1021.2
20260502054426 43 0.0 0.0 0.00 0.00 0.00 49 1021.2
20260502053333 43 0.0 0.0 0.00 0.00 0.00 49 1021.2
20260502052241 42 0.0 0.0 0.00 0.00 0.00 49 1021.3
20260502051149 42 0.0 0.0 0.00 0.00 0.00 49 1021.3
20260502050056 42 0.0 0.0 0.00 0.00 0.00 49 1021.3
20260502045003 41 0.0 0.0 0.00 0.00 0.00 49 1021.2
20260502043911 41 0.0 0.0 0.00 0.00 0.00 49 1021.1
20260502042818 41 0.0 0.0 0.00 0.00 0.00 49 1021.2
20260502041726 41 0.0 0.0 0.00 0.00 0.00 49 1021.1
20260502040634 41 0.0 0.0 0.00 0.00 0.00 48 1021.0
20260502035541 41 0.0 0.0 0.00 0.00 0.00 48 1020.9
20260502034449 41 0.0 0.0 0.00 0.00 0.00 48 1020.8
20260502033357 41 0.0 0.0 0.00 0.00 0.00 48 1020.8
20260502032306 41 0.0 0.0 0.00 0.00 0.00 48 1020.8
20260502031213 41 0.0 0.0 0.00 0.00 0.00 48 1020.8
20260502030120 41 0.0 0.0 0.00 0.00 0.00 48 1020.8
20260502025028 41 0.0 0.0 0.00 0.00 0.00 47 1021.0
20260502022843 41 0.0 0.0 0.00 0.00 0.00 47 1020.9
20260502021750 42 0.0 0.0 0.00 0.00 0.00 47 1021.0
20260502020658 42 0.0 0.0 0.00 0.00 0.00 46 1020.9
20260502015606 42 0.0 0.0 0.00 0.00 0.00 46 1020.8
20260502014513 42 0.0 0.0 0.00 0.00 0.00 46 1020.9
20260502013421 42 0.0 0.0 0.00 0.00 0.00 46 1021.0
20260502012329 42 0.0 0.0 0.00 0.00 0.00 46 1021.0
20260502011236 42 0.0 0.0 0.00 0.00 0.00 45 1021.1
20260502010144 43 0.0 0.0 0.00 0.00 0.00 45 1021.1
20260502005052 43 0.0 0.0 0.00 0.00 0.00 45 1021.2
20260502004000 43 0.0 0.0 0.00 0.00 0.00 45 1021.1
20260502002907 43 0.0 0.0 0.00 0.00 0.00 44 1021.2
20260502001815 43 0.0 0.0 0.00 0.00 0.00 44 1021.2
20260502000723 43 0.0 0.0 0.00 0.00 0.00 44 1021.1
20260501235631 44 0.0 0.0 0.00 0.00 0.00 44 1021.1
20260501234539 44 0.0 0.0 0.00 0.00 0.00 43 1021.2
20260501233447 44 0.0 0.0 0.00 0.00 0.00 43 1021.1
20260501232354 44 0.0 0.0 0.00 0.00 0.00 43 1021.2
20260501231302 44 0.0 0.0 0.00 0.00 0.00 43 1021.1
20260501230210 44 0.0 0.0 0.00 0.00 0.00 43 1021.2
20260501225118 45 0.0 0.0 0.00 0.00 0.00 42 1021.1
20260501224026 45 0.0 0.0 0.00 0.00 0.00 42 1021.1
20260501222934 45 0.0 0.0 0.00 0.00 0.00 42 1021.0
20260501221841 45 0.0 0.0 0.00 0.00 0.00 41 1020.9
20260501220749 46 0.0 0.0 0.00 0.00 0.00 41 1020.8
20260501215657 46 0.0 0.0 0.00 0.00 0.00 41 1020.8
20260501214604 46 0.0 0.0 0.00 0.00 0.00 41 1020.7
20260501213512 47 0.0 0.0 0.00 0.00 0.00 40 1020.5
20260501212420 47 0.0 0.0 0.00 0.00 0.00 40 1020.4
20260501211327 47 0.0 0.0 0.00 0.00 0.00 40 1020.5
20260501210235 48 0.0 0.0 0.00 0.00 0.00 39 1020.3
20260501205143 48 0.0 0.0 0.00 0.00 0.00 39 1020.3
20260501204051 49 0.0 0.0 0.00 0.00 0.00 39 1020.2
20260501202958 49 0.0 0.0 0.00 0.00 0.00 38 1020.1
20260501201906 49 0.0 0.0 0.00 0.00 0.00 38 1020.1
20260501200814 50 0.0 0.0 0.00 0.00 0.00 37 1019.9
20260501195722 50 0.0 0.0 0.00 0.00 0.00 37 1019.8
20260501194630 51 0.0 0.0 0.00 0.00 0.00 37 1019.8
20260501193539 52 0.0 0.0 0.00 0.00 0.00 36 1019.5
20260501192447 52 0.0 0.0 0.00 0.00 0.00 36 1019.3
20260501190303 54 0.0 0.0 0.00 0.00 0.00 35 1019.1
20260501185212 55 0.0 0.0 0.00 0.00 0.00 34 1018.9
20260501184121 57 0.0 0.0 0.00 0.00 0.00 33 1018.6
20260501183029 59 0.0 0.0 0.00 0.00 0.00 33 1018.5
20260501181937 61 0.0 0.0 0.00 0.00 0.00 32 1018.2
20260501180846 64 0.0 0.0 0.00 0.00 0.00 31 1018.0
20260501175756 70 0.0 0.0 0.00 0.00 0.00 29 1017.8
20260501174705 73 0.0 0.0 0.00 0.00 0.00 29 1017.6
20260501173614 74 0.0 0.0 0.00 0.00 0.00 28 1017.5
20260501172522 77 0.0 0.0 0.00 0.00 0.00 27 1017.3
20260501171431 79 0.0 0.0 0.00 0.00 0.00 27 1017.3
20260501165249 82 0.0 0.0 0.00 0.00 0.00 26 1017.1
20260501164157 82 0.0 0.0 0.00 0.00 0.00 26 1017.1